Simultaneous Nadir Overpasses (SNOs) Predictions

Prediction of SNOs between TERRA and METOP-C Satellite Orbit:

Table of predicted SNOs for the next 14.0 days since TLE Epoch: 11/18/2023
Index Date (TERRA) Time (TERRA) Lat,Lon (TERRA) SZA (TERRA ) Date (METOP-C) Time (METOP-C) Lat,Lon (METOP-C) SZA (METOP-C ) Distance(km) Time Diff (sec)
1 11/20/2023 01:13:11 80.17,-174.09 100.79 11/20/2023 01:12:16 80.17,-174.14 100.77 0.85 55
2 11/20/2023 02:02:30 -80.29, -5.38 79.01 11/20/2023 02:02:53 -80.30, -5.27 78.99 2.34 23
3 11/22/2023 16:34:11 -80.15, 135.46 78.68 11/22/2023 16:33:18 -80.15, 135.39 78.70 1.28 53
4 11/22/2023 17:23:29 80.26, -55.96 101.50 11/22/2023 17:23:54 80.25, -56.12 101.49 2.97 25
5 11/25/2023 07:55:08 80.17, 85.35 101.88 11/25/2023 07:54:16 80.17, 85.45 101.88 1.98 52
6 11/25/2023 08:44:28 -80.25,-106.26 77.99 11/25/2023 08:44:55 -80.25,-106.35 77.98 1.59 27
7 11/27/2023 23:16:07 -80.15, 34.92 77.67 11/27/2023 23:15:18 -80.14, 34.85 77.70 1.49 49
8 11/28/2023 00:05:25 80.26,-156.49 102.50 11/28/2023 00:05:54 80.25,-156.62 102.49 2.82 29
9 11/30/2023 14:37:03 80.14, -15.43 102.75 11/30/2023 14:36:16 80.14, -15.45 102.73 0.66 47



Historial Predications of SNOs between TERRA and METOP-C
